Погода в Халкиде

Греция     38°27′42″N   23°35′32″E
темп.,
°C
ветер,
м/с
пор.,
м/с
влажн.,
%
обл.,
%
осадки,
мм/ч
давл.,
гПа
погр.,
м
10 августа, ср
ср1000:00+26сз33480 0.0 101247
03:00+25зсз34490 0.0 101189
06:00+24сз45550 0.0 1011124
09:00+27ссз48500 0.0 1012817
12:00+29ссв812400 0.0 10121152
15:00+30ссв711360 0.0 10121351
18:00+30с58340 0.0 10111045
21:00+28ссз22400 0.0 101013
11 августа, чт
чт1100:00+26сз22460 0.0 101118
03:00+25сз45553 0.0 1012121
06:00+24ссз46665 0.0 1012515
09:00+26с47565 0.0 10131093
12:00+28с68491 0.0 10141178
15:00+29с56430 0.0 1013791
18:00+29ссв35400 0.0 1012513
21:00+26сз23480 0.0 101228
12 августа, пт
пт1200:00+25ссз33512 0.0 101379
03:00+24с35681 0.0 1013315
06:00+23с34760 0.1 1012345
09:00+25ссз45670 0.1 1013776
12:00+28с56502 0.0 1013965
15:00+29с56450 0.0 1012845
18:00+29ссз34420 0.0 1011588
21:00+26сз335022 0.0 101247
13 августа, сб
сб1300:00+25сз34566 0.0 1012203
03:00+24с34615 0.0 1011207
06:00+23зсз34660 0.0 1011247
09:00+25сз34570 0.1 1011428
12:00+27сз43470 0.0 1011684
15:00+29ссз33420 0.0 1009708
18:00+30ссз44402 0.0 1008530
21:00+28ююв12490 0.0 100812
14 августа, вс
вс1400:00+26ююв23550 0.0 100857
03:00+25юз22540 0.0 100768
06:00+24з11600 0.0 100773
09:00+27сз22490 0.0 1007308
12:00+29ссз22440 0.0 1007772
15:00+31св234597 0.0 10051033
18:00+31в464112 0.0 1004666
21:00+27юв35515 0.0 100590